2024/02/10 00:00:00,14.2,-0.2
2024/02/10 00:10:00,14.2,-0.4
2024/02/10 00:20:00,14.1,-0.4
2024/02/10 00:30:00,14.1,-0.5
2024/02/10 00:40:00,14.1,-0.4
2024/02/10 00:50:00,14.2,-0.6
2024/02/10 01:00:00,14.1,-0.6
2024/02/10 01:10:00,14.1,-0.5
2024/02/10 01:20:00,14.1,-0.6
2024/02/10 01:30:00,14.1,-0.6
2024/02/10 01:40:00,14.1,-0.6
2024/02/10 01:50:00,14.2,-0.6
2024/02/10 02:00:00,14.2,-0.5
2024/02/10 02:10:00,14.2,-0.4
2024/02/10 02:20:00,14.2,-0.4
2024/02/10 02:30:00,14.2,-0.3
2024/02/10 02:40:00,14.2,-0.2
2024/02/10 02:50:00,14.2,-0.1
2024/02/10 03:00:00,14.1,-0.1
2024/02/10 03:10:00,14.1, 0.0
2024/02/10 03:20:00,14.1, 0.3
2024/02/10 03:30:00,14.1, 0.3
2024/02/10 03:40:00,14.1, 0.3
2024/02/10 03:50:00,14.1, 0.6
2024/02/10 04:00:00,14.1, 0.4
2024/02/10 04:10:00,14.1, 0.6
2024/02/10 04:20:00,14.1, 0.9
2024/02/10 04:30:00,14.1, 0.8
2024/02/10 04:40:00,14.1, 0.7
2024/02/10 04:50:00,14.1, 0.8
2024/02/10 05:00:00,14.1, 0.9
2024/02/10 05:10:00,14.1, 0.9
2024/02/10 05:20:00,14.1, 1.0
2024/02/10 05:30:00,14.1, 0.9
2024/02/10 05:40:00,14.1, 0.9
2024/02/10 05:50:00,14.1, 0.9
2024/02/10 06:00:00,14.1, 1.0
2024/02/10 06:10:00,14.1, 1.2
2024/02/10 06:20:00,14.0, 1.1
2024/02/10 06:30:00,14.1, 1.1
2024/02/10 06:40:00,14.1, 1.2
2024/02/10 06:50:00,14.1, 1.1
2024/02/10 07:00:00,14.1, 1.0
2024/02/10 07:10:00,14.1, 1.4
2024/02/10 07:20:00,14.1, 1.2
2024/02/10 07:30:00,14.1, 1.2
2024/02/10 07:40:00,14.1, 1.3
2024/02/10 07:50:00,14.0, 1.5
2024/02/10 08:00:00,14.0, 1.5
2024/02/10 08:10:00,13.9, 1.5
2024/02/10 08:20:00,13.9, 1.6
2024/02/10 08:30:00,13.8, 1.7
2024/02/10 08:40:00,13.8, 1.9
2024/02/10 08:50:00,13.8, 2.0
2024/02/10 09:00:00,13.8, 2.3
2024/02/10 09:10:00,13.7, 2.9
2024/02/10 09:20:00,13.7, 2.9
2024/02/10 09:30:00,13.7, 2.8
2024/02/10 09:40:00,13.7, 3.3
2024/02/10 09:50:00,13.7, 3.5
2024/02/10 10:00:00,13.7, 3.8
2024/02/10 10:10:00,13.6, 4.2
2024/02/10 10:20:00,13.5, 5.3
2024/02/10 10:30:00,13.6, 5.6
2024/02/10 10:40:00, 0.0, 6.7
2024/02/10 10:50:00,13.6, 6.5
2024/02/10 11:00:00,13.6, 5.5
2024/02/10 11:10:00,13.5, 6.3
2024/02/10 11:20:00,---, 7.0
2024/02/10 11:30:00,13.6, 6.6
2024/02/10 11:40:00,13.8, 5.8
2024/02/10 11:50:00,13.8, 5.6
2024/02/10 12:00:00,13.7, 5.4
2024/02/10 12:10:00,13.7, 5.6
2024/02/10 12:20:00,13.6, 6.0
2024/02/10 12:30:00,13.6, 8.5
2024/02/10 12:40:00,13.5, 8.5
2024/02/10 12:50:00,13.5,10.7
2024/02/10 13:00:00,13.5,11.4
2024/02/10 13:10:00,13.3,11.1
2024/02/10 13:20:00,13.1, 9.0
2024/02/10 13:30:00,13.1, 7.6
2024/02/10 13:40:00,13.2, 6.6
2024/02/10 13:50:00,13.2, 5.3
2024/02/10 14:00:00,13.1, 5.0
2024/02/10 14:10:00,13.1, 4.4
2024/02/10 14:20:00,13.1, 4.2
2024/02/10 14:30:00,13.1, 4.1
2024/02/10 14:40:00,13.2, 4.2
2024/02/10 14:50:00,13.1, 4.1
2024/02/10 15:00:00,13.2, 3.7
2024/02/10 15:10:00,13.1, 3.8
2024/02/10 15:20:00,13.1, 3.5
2024/02/10 15:30:00,13.1, 3.5
2024/02/10 15:40:00,13.1, 3.4
2024/02/10 15:50:00,13.1, 3.4
2024/02/10 16:00:00,13.1, 3.4
2024/02/10 16:10:00,13.0, 3.3
2024/02/10 16:20:00,13.0, 3.2
2024/02/10 16:30:00,13.0, 3.1
2024/02/10 16:40:00,13.1, 3.1
2024/02/10 16:50:00,13.0, 2.9
2024/02/10 17:00:00,13.0, 3.1
2024/02/10 17:10:00,13.0, 3.3
2024/02/10 17:20:00,12.9, 2.7
2024/02/10 17:30:00,12.9, 2.9
2024/02/10 17:40:00,12.9, 2.8
2024/02/10 17:50:00,12.9, 2.8
2024/02/10 18:00:00,12.9, 2.8
2024/02/10 18:10:00,12.9, 2.7
2024/02/10 18:20:00,12.9, 2.8
2024/02/10 18:30:00,12.9, 2.8
2024/02/10 18:40:00,12.9, 2.6
2024/02/10 18:50:00,12.9, 2.2
2024/02/10 19:00:00,13.0, 2.2
2024/02/10 19:10:00,13.0, 2.2
2024/02/10 19:20:00,13.0, 2.1
2024/02/10 19:30:00,13.0, 2.2
2024/02/10 19:40:00,13.0, 2.4
2024/02/10 19:50:00,13.0, 2.3
2024/02/10 20:00:00,13.0, 2.3
2024/02/10 20:10:00,13.1, 2.0
2024/02/10 20:20:00,13.0, 2.0
2024/02/10 20:30:00,13.0, 2.0
2024/02/10 20:40:00,13.0, 1.8
2024/02/10 20:50:00,13.0, 1.8
2024/02/10 21:00:00,13.0, 1.7
2024/02/10 21:10:00,13.1, 1.7
2024/02/10 21:20:00,13.2, 1.7
2024/02/10 21:30:00,13.5, 1.4
2024/02/10 21:40:00,13.6, 1.4
2024/02/10 21:50:00,13.6, 1.3
2024/02/10 22:00:00,14.1, 1.4
2024/02/10 22:10:00,14.6, 1.2
2024/02/10 22:20:00,14.5, 1.1
2024/02/10 22:30:00,14.5, 1.2
2024/02/10 22:40:00,14.4, 1.4
2024/02/10 22:50:00,14.4, 1.1
2024/02/10 23:00:00,14.4, 1.4
2024/02/10 23:10:00,14.4, 1.4
2024/02/10 23:20:00,14.4, 1.4
2024/02/10 23:30:00,14.3, 1.3
2024/02/10 23:40:00,14.3, 1.2
2024/02/10 23:50:00,14.3, 0.9
